Tracking 18980 objects as of 21-Feb-2018
HD Live streaming from Space Station
objects crossing your sky now

FENGYUN 1C DEB

Track FENGYUN 1C DEB now!
10-day predictions


NORAD ID: 35189
Int'l Code: 1999-025DNV
Perigee: 840.7 km
Apogee: 939.1 km
Inclination: 99.1 °
Period: 102.6 minutes
Semi major axis: 7260 km
RCS: 0.0105 m2 (small)
Launch date: May 10, 1999
Source: People's Republic of China (PRC)
Launch site: Taiyaun Space Center, China (TSC)

Note: This is SATELLITE DEBRIS
aabbcc
Your satellite tracking list
Your tracking list is empty




NASA's NSSDC Master Catalog

Two Line Element Set (TLE):
1 35189U 99025DNV 18050.32214063 +.00000885 +00000-0 +58452-3 0  9994
2 35189 099.0725 091.7682 0067757 171.5049 188.7281 14.03185473538188
Source of the keplerian elements: AFSPC